Location: Monfort
(47.1967°N, 0.2115°W)
Time: 11:40:42
(UTC+00:00)

Cosmos 1417 Rocket - Pass Details

Date: 24 October 2020
Orbit: 952 x 998 km, 83.0° (Epoch: 27 November)

Event Time Altitude Azimuth Distance (km) Brightness Sun altitude
Rises 18:46:59 0° 182° (S) 3,650 7.5 -19.4°
Reaches altitude 10° 18:49:28 10° 181° (S) 2,713 6.8 -19.8°
Maximum altitude 18:55:41 78° 96° (E) 1,008 4.4 -20.8°
Drops below altitude 10° 19:02:01 10° 11° (N) 2,763 6.8 -21.9°
Sets 19:04:34 0° 10° (N) 3,720 7.5 -22.3°
